Voltar ao catálogo

CZ-6A DEB

AtivoSSO
NORAD 54442·DEBRIS·🇨🇳 China

Lançado Nov 11, 2022 de Taiyuan Satellite Launch Center

Loading…

Próximas Passagens (próximas 24 horas)

TLE

AtualizadoSource: Space-Track

Época: Sep 14, 2026, 08:19 UTC

1 54442U 22151FS  26257.34694929  .00000454  00000-0  32089-3 0  9996
2 54442  98.8760 229.8315 0105644 169.4653 190.8760 14.00088552195855

Acompanhe CZ-6A DEB em tempo real com AllMySat

Download on the App Store